Starlink 32124

operational
NORAD ID: 60298 Int'l Des: 2024-132 Owner: SPXS Country: US Constellation: starlink
LEOCIRCULAR

About Starlink 32124

Description loading...

Live Position

Loading 3D Globe...

Upcoming Passes

Altitude History

Altitude vs Time

uPlot chart will show altitude changes over time

Two-Line Element Set

1 60298U 24132W 25306.23686404 -.00000468 00000-0 -36790-5 0 9996
2 60298 53.1613 284.6622 0001245 89.5045 270.6098 15.30186429 72043
Epoch: Nov 2, 2025 • Age: 28 hours

Current Status

Altitude 492.4 km
Velocity 7.62 km/s
Sub-Earth Point -47.85°S, 29.36°W
Launch Date Jul 28, 2024
Age 1.2 years
Type internet

Technical Details

Classification Payload
Mass 730.00 kg
Dry Mass 700.00 kg
Total Mass 730.00 kg
Length 0.30 m
Diameter 4.10 m
Span 29.00 m
Shape Box + pan
Manufacturer SPXS
Bus Type Starlink V2M
Phase Status In Orbit
Owner/State SPXS/US

Large Constellations

Loading constellations...